Location: Newark
(34.0131°N, 4.3314°W)
Time: 02:28:39
(UTC+00:00)

Explorer 7 - Pass Details

Date: 15 October 2019
Orbit: 485 x 680 km, 50.3° (Epoch: 12 November)

Event Time Altitude Azimuth Distance (km) Brightness Sun altitude
Rises 19:36:45 0° 314° (NW) 2,696 11.1 -24.2°
Reaches altitude 10° 19:38:57 10° 318° (NW) 1,833 10.1 -24.6°
Enters shadow 19:42:01 45° 343° (NNW) 788 7.7 -25.3°
Maximum altitude 19:43:05 61° 39° (NE) 658 - -25.5°
Drops below altitude 10° 19:47:30 10° 120° (ESE) 1,949 - -26.4°
Sets 19:49:54 0° 124° (SE) 2,885 - -26.9°
